Regional Weather Roundup
Issued by NWS

Home | Current Version | Previous Version | Graphics & Text | Print | Product List | Glossary On
Versions: 1 2 3 4 5 6 7 8 9 10 11 12 13 14 15 16 17 18 19 20 21 22 23 24 25 26 27 28 29 30 31 32 33 34 35 36 37 38 39 40 41 42 43 44 45 46 47 48 49 50
000
ASUS43 KOAX 292110
RWRNE

WEATHER ROUNDUP FOR NEBRASKA
NATIONAL WEATHER SERVICE OMAHA NE
400 PM CDT MON JUN 29 2015

NOTES: SATELLITE DATA IS BEING USED TO AUGMENT CLOUD COVER ABOVE
       12000 FEET.
       "FAIR" INDICATES FEW OR NO CLOUDS BELOW 12,000 FEET WITH NO
       SIGNIFICANT WEATHER AND/OR OBSTRUCTIONS TO VISIBILITY.

  * THESE STATIONS DO NOT REPORT WEATHER SUCH AS RAIN...SNOW OR FOG.

NEZ001>004-019>022-054>056-292200-
NEBRASKA PANHANDLE

CITY           SKY/WX    TMP DP  RH WIND       PRES   REMARKS
SCOTTSBLUFF    SUNNY     90  51  26 CALM      30.12F
ALLIANCE       SUNNY     87  57  35 CALM      30.11F
CHADRON        SUNNY     89  58  34 CALM      30.07F
KIMBALL          N/A    N/A N/A N/A MISG        N/A
SIDNEY         SUNNY     87  51  28 CALM      30.17S
$$

NEZ057>060-069>072-079>082-292200-
SOUTHWEST NEBRASKA

CITY           SKY/WX    TMP DP  RH WIND       PRES   REMARKS
NORTH PLATTE   SUNNY     91  58  32 NW8       30.03F HX  90
IMPERIAL       MOSUNNY   89  54  30 VRB5      30.08F
LEXINGTON      SUNNY     93  53  25 NW10      30.02F HX  90
MCCOOK         SUNNY     93  54  26 N6        30.03F HX  91
OGALLALA       SUNNY     88  54  31 CALM      30.08F
$$

NEZ005>010-023>029-035>040-094-292200-
NORTH CENTRAL NEBRASKA

CITY           SKY/WX    TMP DP  RH WIND       PRES   REMARKS
VALENTINE      SUNNY     89  61  38 N8        30.03F
AINSWORTH      SUNNY     87  59  38 N13       30.03F
BROKEN BOW     SUNNY     89  59  36 N10       30.02F
O`NEILL        SUNNY     86  59  39 NW8       29.98F
ORD            SUNNY     90  55  30 VRB7      29.97F
THEDFORD       SUNNY     90  58  34 NW6       30.05F
$$

NEZ041-046>049-061>064-073>077-083>087-292200-
SOUTH CENTRAL NEBRASKA

CITY           SKY/WX    TMP DP  RH WIND       PRES   REMARKS
GRAND ISLAND   SUNNY     88  57  34 NW5       29.99F
AURORA         SUNNY     85  58  39 W5        29.98F
HASTINGS       SUNNY     87  61  41 N8        30.00F
HEBRON         SUNNY     85  54  34 N8        29.98F
HOLDREGE       SUNNY     88  55  32 N7        30.01F
KEARNEY *      SUNNY     88  57  35 N9        30.00F
YORK           SUNNY     84  59  42 NW8       29.97F
$$

NEZ011>018-030>034-042>045-292200-
NORTHEAST NEBRASKA

CITY           SKY/WX    TMP DP  RH WIND       PRES   REMARKS
NORFOLK        SUNNY     85  60  42 N10       29.96F
ALBION         SUNNY     85  54  34 CALM      29.98F
BLAIR          MOSUNNY   83  57  40 N9        29.93F
COLUMBUS *     SUNNY    N/A N/A N/A MISG        N/A
FREMONT        SUNNY     85  57  38 N3        29.94S
TEKAMAH        SUNNY     88  62  41 N9        29.92F
WAYNE          MOSUNNY   82  64  53 NW7       29.95F
$$

NEZ050>053-065>068-078-088>093-292200-
SOUTHEAST NEBRASKA

CITY           SKY/WX    TMP DP  RH WIND       PRES   REMARKS
LINCOLN        MOSUNNY   88  58  36 NW10      29.95F
OMAHA EPPLEY   CLOUDY    86  62  44 NW8       29.91F
BEATRICE       SUNNY     85  59  40 W9        29.95F
FALLS CITY     SUNNY     85  63  47 N7        29.92F
NEBRASKA CITY  PTSUNNY   85  51  30 N8        29.94S
PLATTSMOUTH    MOSUNNY   85  55  36 NW7       29.93F
$$

NEZ044-045-051>053-067-292200-
OMAHA AREA

CITY           SKY/WX    TMP DP  RH WIND       PRES   REMARKS
OMAHA EPPLEY   CLOUDY    86  62  44 NW8       29.91F
BLAIR          MOSUNNY   83  57  40 N9        29.93F
FREMONT        SUNNY     85  57  38 N3        29.94S
MILLARD        MOSUNNY   85  61  45 NW10      29.92S
OFFUTT AFB     SUNNY     85  63  47 N8        29.91F
PLATTSMOUTH    MOSUNNY   85  55  36 NW7       29.93F
WAHOO          FAIR      87  55  33 NW9       29.94F
$$



USA.gov is the U.S. government's official web portal to all federal, state and local government web resources and services.